Springfield, IL

11:04 PM CDT on March 27, 2017 (GMT -0500)
Capital

Weather History for KSPI - December, 2013

Change the Weather History Date:

Sunday, December 8, 2013

  Actual Average Record
Temperature  
Mean Temperature 21 °F 32 °F  
Max Temperature 26 °F 41 °F 68 °F (1991)
Min Temperature 16 °F 24 °F -6 °F (1882)
Degree Days  
Heating Degree Days 44 33  
Month to date heating degree days 263 249  
Since 1 July heating degree days 1445 1317  
Cooling Degree Days 0 0  
Month to date cooling degree days 0 0  
Year to date cooling degree days 1145 1122  
Moisture  
Dew Point 20 °F    
Average Humidity 77    
Maximum Humidity 92    
Minimum Humidity 61    
Precipitation  
Precipitation 0.06 in 0.09 in 0.95 in (1885)
Month to date precipitation 0.06 0.75  
Year to date precipitation 36.81 35.66  
Snow  
Snow 0.60 in 0.10 in 4.70 in (2005)
Month to date snowfall 0.6 1.0  
Since 1 July snowfall 1.3 1.6  
Snow Depth 0.00 in    
Sea Level Pressure  
Sea Level Pressure 30.12 in    
Wind  
Wind Speed 9 mph (SE)    
Max Wind Speed 16 mph    
Max Gust Speed 21 mph    
Visibility 5 miles    
Events Rain , Snow    
T = Trace of Precipitation, MM = Missing Value Source: NWS Daily Summary

Daily Weather History Graph

Daily Weather History Graph

Search for Another Location

Airport or City:

Trip Planner

Search our weather history database for the weather conditions in past years. The results will help you decide how hot, cold, wet, or windy it might be!

Date:

Astronomy

Dec. 08, 2013 Rise Set
Actual Time 7:07 AM CST 4:33 PM CST
Civil Twilight 6:37 AM CST 5:04 PM CST
Nautical Twilight 6:03 AM CST 5:37 PM CST
Astronomical Twilight 5:30 AM CST 6:10 PM CST
Moon 11:28 AM CST (12/8) 11:22 PM CST (12/8)
Length of Visible Light 10h 26m
Length of Day
9h 26m
Waxing Crescent, 40% of the Moon is Illuminated
Dec 8
Waxing Crescent
Dec 9
First Quarter
Dec 17
Full
Dec 25
Last Quarter
Jan 1
New

Hourly Weather History & Observations

Time (CST) Temp. Windchill Dew Point Humidity Pressure Visibility Wind Dir Wind Speed Gust Speed Precip Events Conditions
12:52 AM 17.1 °F 6.6 °F 6.1 °F 62% 30.50 in 10.0 mi ENE 8.1 mph - N/A   Clear
1:52 AM 18.0 °F 9.8 °F 7.0 °F 62% 30.50 in 10.0 mi NE 5.8 mph - N/A   Overcast
2:52 AM 18.0 °F 6.9 °F 8.1 °F 65% 30.45 in 10.0 mi ENE 9.2 mph - N/A   Overcast
3:52 AM 19.0 °F 9.0 °F 10.0 °F 68% 30.43 in 10.0 mi NE 8.1 mph - N/A   Overcast
4:52 AM 19.9 °F 8.6 °F 10.9 °F 68% 30.40 in 10.0 mi ENE 10.4 mph - N/A   Overcast
5:52 AM 19.0 °F 7.5 °F 12.9 °F 77% 30.37 in 4.0 mi ENE 10.4 mph - 0.01 in Snow Light Snow
6:52 AM 19.9 °F 9.3 °F 14.0 °F 78% 30.35 in 10.0 mi ENE 9.2 mph - 0.00 in   Overcast
7:52 AM 19.9 °F 7.3 °F 15.1 °F 81% 30.30 in 8.0 mi East 12.7 mph - 0.00 in Snow Light Snow
8:52 AM 21.0 °F 8.1 °F 17.1 °F 85% 30.28 in 6.0 mi ENE 13.8 mph - 0.00 in Snow Light Snow
9:23 AM 21.2 °F 9.5 °F 15.8 °F 80% 30.26 in 7.0 mi East 11.5 mph - N/A   Overcast
9:52 AM 21.9 °F 10.4 °F 17.1 °F 82% 30.28 in 10.0 mi East 11.5 mph - N/A   Overcast
10:52 AM 23.0 °F 13.1 °F 18.0 °F 81% 30.25 in 10.0 mi East 9.2 mph - N/A   Overcast
11:52 AM 25.0 °F 13.6 °F 19.0 °F 78% 30.19 in 9.0 mi East 12.7 mph - 0.00 in   Overcast
12:19 PM 24.8 °F 13.4 °F 19.4 °F 80% 30.13 in 2.0 mi East 12.7 mph - 0.00 in Snow Light Snow
12:33 PM 24.8 °F 14.6 °F 19.4 °F 80% 30.12 in 4.0 mi East 10.4 mph - 0.00 in Snow Light Snow
12:45 PM 24.8 °F 15.3 °F 19.4 °F 80% 30.11 in 2.5 mi East 9.2 mph - 0.00 in Snow Light Snow
12:52 PM 25.0 °F 14.8 °F 19.9 °F 81% 30.14 in 2.5 mi East 10.4 mph - 0.00 in Snow Light Snow
1:20 PM 24.8 °F 14.6 °F 19.4 °F 80% 30.08 in 1.8 mi East 10.4 mph - 0.00 in Snow Light Snow
1:25 PM 24.8 °F 14.0 °F 19.4 °F 80% 30.08 in 3.0 mi ESE 11.5 mph - 0.00 in Snow Light Snow
1:32 PM 24.8 °F 15.3 °F 21.2 °F 86% 30.08 in 2.5 mi ESE 9.2 mph - 0.00 in Snow Light Snow
1:48 PM 24.8 °F 14.6 °F 21.2 °F 86% 30.06 in 3.0 mi East 10.4 mph - 0.01 in   Overcast
1:52 PM 25.0 °F 15.5 °F 21.0 °F 85% 30.08 in 3.0 mi ESE 9.2 mph - 0.01 in   Overcast
2:02 PM 24.8 °F 16.1 °F 21.2 °F 86% 30.05 in 2.5 mi East 8.1 mph - N/A   Overcast
2:45 PM 24.8 °F 16.1 °F 21.2 °F 86% 30.04 in 4.0 mi ESE 8.1 mph - N/A   Overcast
2:52 PM 25.0 °F 17.1 °F 21.0 °F 85% 30.06 in 5.0 mi ESE 6.9 mph - N/A   Overcast
3:32 PM 24.8 °F 16.1 °F 21.2 °F 86% 30.02 in 2.0 mi ESE 8.1 mph - 0.00 in Snow Light Snow
3:36 PM 24.8 °F 16.1 °F 21.2 °F 86% 30.03 in 1.2 mi ESE 8.1 mph - 0.00 in Snow Light Snow
3:46 PM 24.8 °F 15.3 °F 21.2 °F 86% 30.03 in 2.0 mi ESE 9.2 mph - 0.00 in Snow Light Snow
3:52 PM 25.0 °F 15.5 °F 21.9 °F 88% 30.06 in 2.5 mi SE 9.2 mph - 0.00 in   Overcast
4:13 PM 24.8 °F 17.9 °F 23.0 °F 93% 30.02 in 2.0 mi ESE 5.8 mph - 0.00 in Rain Light Freezing Rain
4:20 PM 24.8 °F 16.9 °F 23.0 °F 93% 30.01 in 1.2 mi ESE 6.9 mph - 0.00 in Rain Light Freezing Rain
4:42 PM 24.8 °F 16.9 °F 23.0 °F 93% 30.01 in 2.0 mi SE 6.9 mph - 0.00 in Rain Light Freezing Rain
4:52 PM 25.0 °F 18.1 °F 23.0 °F 92% 30.04 in 2.5 mi SSE 5.8 mph - 0.00 in Rain Light Freezing Rain
4:59 PM 24.8 °F 17.9 °F 23.0 °F 93% 30.01 in 2.5 mi SSE 5.8 mph - 0.00 in Rain Light Freezing Rain
5:34 PM 24.8 °F 16.9 °F 24.8 °F 100% 30.01 in 1.8 mi South 6.9 mph - 0.01 in Snow Light Snow
5:41 PM 26.6 °F 20.0 °F 24.8 °F 93% 30.02 in 1.5 mi SW 5.8 mph - 0.01 in Snow Light Snow
5:52 PM 26.1 °F 18.4 °F 23.0 °F 88% 30.05 in 1.5 mi SSW 6.9 mph - 0.01 in Snow Light Snow
5:55 PM 24.8 °F 16.1 °F 23.0 °F 93% 30.02 in 1.2 mi SSW 8.1 mph - 0.00 in Snow Light Snow
6:31 PM 24.8 °F 16.9 °F 24.8 °F 100% 30.01 in 1.5 mi South 6.9 mph - 0.02 in Snow Light Snow
6:42 PM 24.8 °F 15.3 °F 23.0 °F 93% 30.01 in 1.8 mi SSW 9.2 mph - 0.02 in Snow Light Snow
6:52 PM 25.0 °F 16.3 °F 23.0 °F 92% 30.04 in 2.5 mi SSW 8.1 mph - 0.02 in Snow Light Snow
7:03 PM 24.8 °F 19.1 °F 23.0 °F 93% 30.02 in 3.0 mi SSW 4.6 mph - 0.00 in Snow Light Snow
7:18 PM 24.8 °F 20.5 °F 23.0 °F 93% 30.02 in 4.0 mi SW 3.5 mph - 0.00 in   Overcast
7:41 PM 24.8 °F 16.9 °F 23.0 °F 93% 30.03 in 7.0 mi SW 6.9 mph - 0.00 in   Overcast
7:49 PM 24.8 °F 16.9 °F 23.0 °F 93% 30.03 in 8.0 mi SW 6.9 mph - 0.00 in   Overcast
7:52 PM 25.0 °F 17.1 °F 23.0 °F 92% 30.05 in 9.0 mi SW 6.9 mph - 0.00 in   Overcast
8:22 PM 24.8 °F 16.1 °F 21.2 °F 86% 30.03 in 9.0 mi SW 8.1 mph - N/A   Overcast
8:52 PM 25.0 °F 16.3 °F 21.9 °F 88% 30.05 in 8.0 mi SW 8.1 mph - N/A   Overcast
9:20 PM 24.8 °F 16.9 °F 21.2 °F 86% 30.03 in 8.0 mi WSW 6.9 mph - N/A   Overcast
9:32 PM 24.8 °F 15.3 °F 21.2 °F 86% 30.03 in 8.0 mi WSW 9.2 mph - N/A   Overcast
9:52 PM 25.0 °F 16.3 °F 21.9 °F 88% 30.05 in 7.0 mi WSW 8.1 mph - N/A   Overcast
10:06 PM 24.8 °F 14.6 °F 21.2 °F 86% 30.03 in 7.0 mi WSW 10.4 mph - N/A   Overcast
10:52 PM 25.0 °F 13.1 °F 21.9 °F 88% 30.06 in 7.0 mi WSW 13.8 mph - N/A   Overcast
11:52 PM 25.0 °F 13.6 °F 21.9 °F 88% 30.07 in 7.0 mi West 12.7 mph - N/A   Overcast